Weather History for Johnstown, PA

Change the Weather History Date:

Monday, March 4, 2013

  Actual Average Record
Temperature  
Mean Temperature 21 °F 31 °F  
Max Temperature 27 °F 39 °F 78 °F (1894)
Min Temperature 15 °F 24 °F 0 °F (1943)
Degree Days  
Heating Degree Days 44 34  
Month to date heating degree days 137  
Since 1 July heating degree days 5016  
Cooling Degree Days 0 0  
Month to date cooling degree days 0  
Year to date cooling degree days 0  
Moisture  
Dew Point 12 °F    
Average Humidity 77    
Maximum Humidity 86    
Minimum Humidity 60    
Precipitation  
Precipitation 0.01 in 0.07 in 1.24 in (1955)
Month to date precipitation 0.29  
Year to date precipitation 5.52  
Sea Level Pressure  
Sea Level Pressure 29.97 in    
Wind  
Wind Speed 16 mph (WNW)    
Max Wind Speed 22 mph    
Max Gust Speed 33 mph    
Visibility 4 miles    
Events Snow    
T = Trace of Precipitation, MM = Missing Value Source: NWS Daily Summary

Daily Weather History Graph

Daily Weather History Graph

Search for Another Location

Airport:

Trip Planner

Search our weather history database for the weather conditions in past years. The results will help you decide how hot, cold, wet, or windy it might be!

Date:

Astronomy

Mar. 04, 2013 Rise Set
Actual Time 6:43 AM EST 6:10 PM EST
Civil Twilight 6:16 AM EST 6:37 PM EST
Nautical Twilight 5:45 AM EST 7:09 PM EST
Astronomical Twilight 5:13 AM EST 7:40 PM EST
Moon 12:52 AM EST (3/4) 10:50 AM EST (3/4)
Length of Visible Light 12h 21m
Length of Day
11h 26m
Waning Gibbous, 52% of the Moon is Illuminated
Mar 4
Waning Gibbous
Mar 4
Last Quarter
Mar 11
New
Mar 19
First Quarter
Mar 27
Full

Hourly Weather History & Observations

Time (EST) Temp. Windchill Dew Point Humidity Pressure Visibility Wind Dir Wind Speed Gust Speed Precip Events Conditions
12:08 AM 17.6 °F 3.7 °F 12.2 °F 79% 29.85 in 3.0 mi WNW 13.8 mph - 0.00 in Snow Light Snow
12:54 AM 17.1 °F 3.0 °F 12.0 °F 81% 29.96 in 4.0 mi West 13.8 mph - 0.00 in Snow Light Snow
1:30 AM 17.6 °F 3.2 °F 12.2 °F 79% 29.85 in 4.0 mi WNW 15.0 mph 21.9 mph 0.00 in Snow Light Snow
1:42 AM 17.6 °F 3.7 °F 12.2 °F 79% 29.85 in 4.0 mi WNW 13.8 mph - 0.00 in Snow Light Snow
1:54 AM 17.1 °F 3.0 °F 12.0 °F 81% 29.96 in 4.0 mi WNW 13.8 mph - 0.00 in Snow Light Snow
2:54 AM 16.0 °F 1.7 °F 10.9 °F 81% 29.96 in 6.0 mi WNW 13.8 mph - 0.00 in Snow Light Snow
3:54 AM 16.0 °F 1.1 °F 10.9 °F 81% 29.97 in 3.0 mi West 15.0 mph - 0.00 in Snow Light Snow
4:54 AM 16.0 °F 1.1 °F 10.9 °F 81% 29.98 in 3.0 mi WNW 15.0 mph - 0.00 in Snow Light Snow
5:02 AM 15.8 °F 1.4 °F 12.2 °F 86% 29.88 in 2.5 mi West 13.8 mph 20.7 mph 0.00 in Snow Light Snow
5:14 AM 15.8 °F -0.2 °F 10.4 °F 79% 29.88 in 3.0 mi WNW 17.3 mph 26.5 mph 0.00 in Snow Light Snow
5:21 AM 15.8 °F -1.1 °F 10.4 °F 79% 29.88 in 3.0 mi West 19.6 mph 28.8 mph 0.00 in Snow Light Snow
5:32 AM 15.8 °F 5.1 °F 12.2 °F 86% 29.89 in 2.0 mi West 8.1 mph - 0.00 in Snow Light Snow
5:54 AM 16.0 °F -1.3 °F 10.9 °F 81% 30.01 in 2.0 mi WNW 20.7 mph 32.2 mph 0.00 in Snow Light Snow
6:06 AM 15.8 °F 0.9 °F 10.4 °F 79% 29.90 in 1.8 mi WNW 15.0 mph 24.2 mph 0.00 in Snow Light Snow
6:13 AM 15.8 °F 0.9 °F 10.4 °F 79% 29.90 in 3.0 mi WNW 15.0 mph - 0.00 in Snow Light Snow
6:40 AM 15.8 °F -0.2 °F 10.4 °F 79% 29.90 in 2.0 mi WNW 17.3 mph - 0.00 in Snow Light Snow
6:46 AM 15.8 °F 0.3 °F 10.4 °F 79% 29.90 in 1.8 mi WNW 16.1 mph 24.2 mph 0.00 in Snow Light Snow
6:54 AM 16.0 °F 0.6 °F 12.0 °F 84% 30.02 in 1.5 mi WNW 16.1 mph - 0.00 in Snow Light Snow
7:26 AM 15.8 °F -0.6 °F 12.2 °F 86% 29.91 in 1.0 mi WNW 18.4 mph 25.3 mph 0.00 in Snow Light Snow
7:54 AM 16.0 °F -1.7 °F 10.9 °F 81% 30.04 in 1.8 mi WNW 21.9 mph 28.8 mph 0.00 in Snow Light Snow
8:03 AM 15.8 °F 0.3 °F 10.4 °F 79% 29.93 in 2.0 mi WNW 16.1 mph 26.5 mph 0.00 in Snow Light Snow
8:17 AM 15.8 °F -0.2 °F 12.2 °F 86% 29.93 in 1.2 mi WNW 17.3 mph - 0.00 in Snow Light Snow
8:39 AM 17.6 °F 1.7 °F 12.2 °F 79% 29.94 in 1.2 mi WNW 18.4 mph - 0.00 in Snow Light Snow
8:54 AM 17.1 °F 1.5 °F 12.0 °F 81% 30.05 in 0.8 mi WNW 17.3 mph 33.4 mph 0.00 in Snow Light Snow
9:02 AM 17.6 °F 0.5 °F 12.2 °F 79% 29.94 in 1.0 mi WNW 21.9 mph - 0.00 in Snow Light Snow
9:15 AM 17.6 °F 0.9 °F 12.2 °F 79% 29.94 in 1.0 mi WNW 20.7 mph 27.6 mph 0.00 in Snow Light Snow
9:34 AM 17.6 °F 2.2 °F 12.2 °F 79% 29.95 in 0.8 mi WNW 17.3 mph 27.6 mph 0.01 in Snow Light Snow
9:44 AM 17.6 °F 1.7 °F 12.2 °F 79% 29.95 in 1.5 mi WNW 18.4 mph 28.8 mph 0.01 in Snow Light Snow
9:54 AM 18.0 °F 2.6 °F 12.0 °F 78% 30.06 in 1.8 mi WNW 17.3 mph - 0.01 in Snow Light Snow
10:07 AM 17.6 °F 0.9 °F 12.2 °F 79% 29.95 in 2.0 mi WNW 20.7 mph - 0.00 in Snow Light Snow
10:54 AM 18.0 °F 2.6 °F 12.9 °F 81% 30.06 in 1.2 mi West 17.3 mph 24.2 mph 0.00 in Snow Light Snow
11:29 AM 19.4 °F 3.2 °F 12.2 °F 74% 29.95 in 2.0 mi West 20.7 mph 27.6 mph 0.00 in Snow Light Snow
11:49 AM 19.4 °F 4.1 °F 12.2 °F 74% 29.94 in 3.0 mi West 18.4 mph 25.3 mph 0.00 in Snow Light Snow
11:54 AM 19.9 °F 4.3 °F 12.9 °F 74% 30.05 in 3.0 mi West 19.6 mph 26.5 mph 0.00 in Snow Light Snow
12:54 PM 21.0 °F 6.6 °F 14.0 °F 74% 30.04 in 3.0 mi WNW 17.3 mph 27.6 mph 0.00 in Snow Light Snow
1:54 PM 21.9 °F 6.9 °F 14.0 °F 72% 30.03 in 9.0 mi WNW 19.6 mph 26.5 mph 0.00 in   Overcast
2:54 PM 25.0 °F 10.9 °F 14.0 °F 63% 30.03 in 8.0 mi WNW 19.6 mph 29.9 mph N/A   Mostly Cloudy
3:15 PM 24.8 °F 11.9 °F 15.8 °F 69% 29.92 in 10.0 mi WNW 16.1 mph - N/A   Scattered Clouds
3:54 PM 25.0 °F 12.2 °F 14.0 °F 63% 30.02 in 10.0 mi WNW 16.1 mph - N/A   Clear
4:54 PM 27.0 °F 16.1 °F 15.1 °F 61% 30.02 in 10.0 mi WNW 12.7 mph 20.7 mph N/A   Partly Cloudy
5:54 PM 26.1 °F 15.0 °F 14.0 °F 60% 30.04 in 10.0 mi West 12.7 mph - N/A   Clear
6:54 PM 24.1 °F 14.4 °F 14.0 °F 65% 30.05 in 10.0 mi WNW 9.2 mph - N/A   Clear
7:54 PM 24.1 °F 14.4 °F 15.1 °F 69% 30.06 in 10.0 mi WNW 9.2 mph - N/A   Clear
8:54 PM 24.1 °F 13.1 °F 15.1 °F 69% 30.06 in 10.0 mi WNW 11.5 mph - N/A   Clear
9:54 PM 23.0 °F 11.7 °F 14.0 °F 68% 30.07 in 10.0 mi WNW 11.5 mph - N/A   Clear
10:54 PM 21.9 °F 10.4 °F 14.0 °F 72% 30.06 in 10.0 mi WNW 11.5 mph - N/A   Clear
11:54 PM 21.0 °F 10.6 °F 14.0 °F 74% 30.06 in 10.0 mi WNW 9.2 mph - N/A   Clear